{"data":{"norad_id":43585,"epoch":"2026-09-20T04:30:24.786432Z","epoch_age_seconds":48853,"freshness":"FRESH","line1":"1 43585U 18063A   26263.18778688  .00011437  00000+0  15483-3 0  9994","line2":"2 43585  97.1190 329.9156 0003147   7.3552 352.7750 15.57858464455125","mean_motion":15.57858464,"eccentricity":0.0003147,"inclination_deg":97.119,"raan_deg":329.9156,"arg_perigee_deg":7.3552,"mean_anomaly_deg":352.775,"bstar":0.00015483,"rev_number":45512,"period_min":92.43458460935,"perigee_km":391.72498889588,"apogee_km":395.98728137513,"semimajor_km":6771.9931351355,"source":"CELESTRAK","updated_at":"2026-09-20T09:00:33.973502Z"}}